When you browse on this site, cookies collect data to enhance your experience and personalize the content and advertising you see.
Visit our Privacy Policy to learn more. By continuing to use the site, you agree to this use of cookies and data.
  • In Hungary
  • List of Countries
  • For 7 days
  • Water Temperature
  • Weather Map
  • News
  • Weather Widgets
  • user-avatar
    Login

    Hourly Weather Annaba

    Today, 2 June, Tuesday

    Time Temperature Precipitation Wind Pressure Humidity
    00:00 +19°C° 0 mm 2 mps 760 mmHg 79%
    01:00 +19°C° 0 mm 2 mps 759 mmHg 81%
    02:00 +19°C° 0 mm 1 mps 759 mmHg 82%
    03:00 +19°C° 0 mm 1 mps 759 mmHg 83%
    04:00 +19°C° 0 mm 1 mps 759 mmHg 84%
    05:00 +20°C° 0 mm 1 mps 759 mmHg 79%
    06:00 +21°C° 0 mm 1 mps 759 mmHg 74%
    07:00 +22°C° 0 mm 1 mps 759 mmHg 70%
    08:00 +24°C° 0 mm 1 mps 760 mmHg 64%
    09:00 +26°C° 0 mm 1 mps 760 mmHg 58%
    10:00 +28°C° 0 mm 2 mps 760 mmHg 52%
    11:00 +28°C° 0 mm 2 mps 760 mmHg 50%
    12:00 +28°C° 0 mm 3 mps 759 mmHg 48%
    13:00 +29°C° 0 mm 4 mps 759 mmHg 45%
    14:00 +28°C° 0 mm 4 mps 759 mmHg 45%
    15:00 +28°C° 0 mm 4 mps 758 mmHg 45%
    16:00 +28°C° 0 mm 4 mps 758 mmHg 44%
    17:00 +27°C° 0 mm 4 mps 758 mmHg 50%
    18:00 +25°C° 0 mm 3 mps 758 mmHg 56%
    19:00 +24°C° 0 mm 3 mps 758 mmHg 62%
    20:00 +23°C° 0 mm 2 mps 759 mmHg 66%
    21:00 +21°C° 0 mm 2 mps 759 mmHg 69%
    22:00 +21°C° 0 mm 1 mps 759 mmHg 73%
    23:00 +21°C° 0 mm 1 mps 759 mmHg 72%

    Tomorrow, 3 June, Wednesday

    Time Temperature Precipitation Wind Pressure Humidity
    00:00 +20°C° 0 mm 1 mps 758 mmHg 72%
    01:00 +20°C° 0 mm 1 mps 758 mmHg 71%
    02:00 +20°C° 0 mm 1 mps 758 mmHg 71%
    03:00 +20°C° 0 mm 1 mps 757 mmHg 71%
    04:00 +20°C° 0 mm 1 mps 757 mmHg 71%
    05:00 +21°C° 0 mm 1 mps 757 mmHg 66%
    06:00 +22°C° 0 mm 1 mps 757 mmHg 62%
    07:00 +22°C° 0 mm 1 mps 757 mmHg 58%
    08:00 +25°C° 0 mm 2 mps 757 mmHg 52%
    09:00 +27°C° 0 mm 2 mps 757 mmHg 46%
    10:00 +29°C° 0 mm 2 mps 757 mmHg 40%
    11:00 +29°C° 0 mm 3 mps 757 mmHg 39%
    12:00 +30°C° 0 mm 3 mps 756 mmHg 39%
    13:00 +32°C° 0 mm 4 mps 756 mmHg 38%
    14:00 +30°C° 0 mm 4 mps 755 mmHg 38%
    15:00 +30°C° 0 mm 4 mps 755 mmHg 38%
    16:00 +30°C° 0 mm 4 mps 755 mmHg 39%
    17:00 +29°C° 0 mm 4 mps 755 mmHg 43%
    18:00 +27°C° 0 mm 4 mps 754 mmHg 48%
    19:00 +26°C° 0 mm 3 mps 754 mmHg 53%
    20:00 +25°C° 0 mm 3 mps 754 mmHg 53%
    21:00 +24°C° 0 mm 2 mps 754 mmHg 54%
    22:00 +24°C° 0 mm 2 mps 755 mmHg 55%
    23:00 +23°C° 0 mm 2 mps 754 mmHg 55%

    Day after tomorrow, 4 June, Thursday

    Time Temperature Precipitation Wind Pressure Humidity
    00:00 +23°C° 0 mm 2 mps 754 mmHg 54%
    01:00 +23°C° 0 mm 1 mps 753 mmHg 54%
    02:00 +23°C° 0 mm 2 mps 753 mmHg 55%
    03:00 +23°C° 0 mm 2 mps 753 mmHg 57%
    04:00 +21°C° 0 mm 2 mps 752 mmHg 58%
    05:00 +23°C° 0 mm 2 mps 752 mmHg 56%
    06:00 +25°C° 0 mm 1 mps 752 mmHg 53%
    07:00 +26°C° 0 mm 1 mps 752 mmHg 51%
    08:00 +28°C° 0 mm 1 mps 752 mmHg 46%
    09:00 +31°C° 0 mm 1 mps 752 mmHg 40%
    10:00 +33°C° 0 mm 1 mps 753 mmHg 35%
    11:00 +35°C° 0 mm 2 mps 752 mmHg 33%
    12:00 +36°C° 0 mm 3 mps 752 mmHg 31%
    13:00 +37°C° 0 mm 4 mps 751 mmHg 29%
    14:00 +35°C° 0.2 mm 4 mps 751 mmHg 33%
    15:00 +32°C° 0.2 mm 4 mps 751 mmHg 37%
    16:00 +29°C° 0.2 mm 4 mps 751 mmHg 41%
    17:00 +28°C° 0.2 mm 3 mps 752 mmHg 46%
    18:00 +27°C° 0.2 mm 3 mps 752 mmHg 51%
    19:00 +26°C° 0.2 mm 2 mps 752 mmHg 56%
    20:00 +24°C° 0.1 mm 2 mps 753 mmHg 61%
    21:00 +23°C° 0.1 mm 2 mps 754 mmHg 67%
    22:00 +21°C° 0.1 mm 2 mps 754 mmHg 72%
    23:00 +21°C° 0 mm 3 mps 754 mmHg 72%

    5 June, Friday

    Time Temperature Precipitation Wind Pressure Humidity
    00:00 +20°C° 0 mm 3 mps 754 mmHg 73%
    01:00 +20°C° 0 mm 3 mps 754 mmHg 74%
    02:00 +20°C° 0 mm 3 mps 754 mmHg 77%
    03:00 +20°C° 0 mm 3 mps 754 mmHg 80%
    04:00 +19°C° 0 mm 4 mps 753 mmHg 83%
    05:00 +20°C° 0.1 mm 4 mps 754 mmHg 79%
    06:00 +21°C° 0.1 mm 4 mps 754 mmHg 75%
    07:00 +22°C° 0.1 mm 4 mps 754 mmHg 71%
    08:00 +25°C° 0 mm 5 mps 754 mmHg 65%
    09:00 +26°C° 0 mm 6 mps 755 mmHg 59%
    10:00 +27°C° 0 mm 7 mps 755 mmHg 52%
    11:00 +28°C° 0 mm 7 mps 756 mmHg 49%
    12:00 +28°C° 0 mm 6 mps 756 mmHg 46%
    13:00 +28°C° 0 mm 6 mps 756 mmHg 43%
    14:00 +28°C° 0 mm 6 mps 757 mmHg 43%
    15:00 +28°C° 0 mm 6 mps 757 mmHg 43%
    16:00 +27°C° 0 mm 6 mps 757 mmHg 43%
    17:00 +26°C° 0 mm 5 mps 757 mmHg 48%
    18:00 +25°C° 0 mm 5 mps 758 mmHg 52%
    19:00 +23°C° 0 mm 5 mps 758 mmHg 57%
    20:00 +22°C° 0 mm 4 mps 758 mmHg 63%
    21:00 +20°C° 0 mm 3 mps 759 mmHg 69%
    22:00 +19°C° 0 mm 3 mps 760 mmHg 75%
    23:00 +19°C° 0 mm 3 mps 759 mmHg 73%

    6 June, Saturday

    Time Temperature Precipitation Wind Pressure Humidity
    00:00 +19°C° 0 mm 3 mps 759 mmHg 71%
    01:00 +18°C° 0 mm 2 mps 759 mmHg 69%
    02:00 +18°C° 0 mm 2 mps 759 mmHg 66%
    03:00 +18°C° 0 mm 2 mps 759 mmHg 64%
    04:00 +19°C° 0 mm 1 mps 758 mmHg 61%
    05:00 +20°C° 0 mm 1 mps 759 mmHg 57%
    06:00 +21°C° 0 mm 1 mps 759 mmHg 52%
    07:00 +23°C° 0 mm 1 mps 759 mmHg 48%
    08:00 +25°C° 0 mm 1 mps 759 mmHg 43%
    09:00 +28°C° 0 mm 1 mps 759 mmHg 37%
    10:00 +30°C° 0 mm 1 mps 759 mmHg 32%
    11:00 +31°C° 0 mm 2 mps 759 mmHg 30%
    12:00 +32°C° 0 mm 2 mps 759 mmHg 29%
    13:00 +34°C° 0 mm 3 mps 758 mmHg 28%
    14:00 +34°C° 0 mm 3 mps 758 mmHg 28%
    15:00 +34°C° 0 mm 4 mps 758 mmHg 29%
    16:00 +33°C° 0 mm 4 mps 757 mmHg 30%
    17:00 +32°C° 0 mm 4 mps 757 mmHg 33%
    18:00 +30°C° 0 mm 4 mps 757 mmHg 37%
    19:00 +28°C° 0 mm 4 mps 757 mmHg 40%
    20:00 +27°C° 0 mm 4 mps 757 mmHg 42%
    21:00 +26°C° 0 mm 4 mps 757 mmHg 43%
    22:00 +25°C° 0 mm 4 mps 757 mmHg 45%
    23:00 +26°C° 0 mm 3 mps 756 mmHg 43%

    7 June, Sunday

    Time Temperature Precipitation Wind Pressure Humidity
    00:00 +26°C° 0 mm 3 mps 756 mmHg 42%
    01:00 +26°C° 0 mm 2 mps 756 mmHg 41%
    02:00 +26°C° 0 mm 2 mps 755 mmHg 40%
    03:00 +26°C° 0 mm 2 mps 755 mmHg 39%
    04:00 +27°C° 0 mm 2 mps 754 mmHg 38%
    05:00 +27°C° 0 mm 2 mps 755 mmHg 39%
    06:00 +28°C° 0 mm 2 mps 755 mmHg 41%
    07:00 +28°C° 0 mm 2 mps 755 mmHg 42%
    08:00 +29°C° 0 mm 4 mps 755 mmHg 40%
    09:00 +32°C° 0 mm 6 mps 756 mmHg 38%
    10:00 +33°C° 0 mm 7 mps 756 mmHg 36%
    11:00 +33°C° 0 mm 7 mps 756 mmHg 37%
    12:00 +33°C° 0 mm 7 mps 756 mmHg 38%
    13:00 +33°C° 0 mm 7 mps 756 mmHg 39%
    14:00 +32°C° 0 mm 6 mps 756 mmHg 41%
    15:00 +30°C° 0 mm 6 mps 756 mmHg 44%
    16:00 +30°C° 0 mm 6 mps 756 mmHg 46%
    17:00 +28°C° 0 mm 5 mps 756 mmHg 50%
    18:00 +27°C° 0 mm 5 mps 757 mmHg 55%
    19:00 +26°C° 0 mm 5 mps 757 mmHg 59%
    20:00 +25°C° 0 mm 4 mps 758 mmHg 65%
    21:00 +22°C° 0 mm 4 mps 758 mmHg 72%
    22:00 +21°C° 0 mm 3 mps 759 mmHg 79%
    23:00 +21°C° 0 mm 3 mps 759 mmHg 77%
    Show more